Weather History for KCCY - April, 2013

Change the Weather History Date:

Monday, April 22, 2013

  Actual Average Record
Temperature  
Mean Temperature 47 °F -  
Max Temperature 57 °F 61 °F 94 °F (1980)
Min Temperature 37 °F 37 °F 23 °F (1986)
Degree Days  
Heating Degree Days 18    
Moisture  
Dew Point 45 °F    
Average Humidity 86    
Maximum Humidity 94    
Minimum Humidity 67    
Precipitation  
Precipitation 0.27 in - - ()
Sea Level Pressure  
Sea Level Pressure 30.06 in    
Wind  
Wind Speed 10 mph (SSE)    
Max Wind Speed 21 mph    
Max Gust Speed 22 mph    
Visibility 8 miles    
Events Rain    
Averages and records for this station are not official NWS values.
T = Trace of Precipitation, MM = Missing Value Source: NWS Daily Summary

Daily Weather History Graph

Daily Weather History Graph

Search for Another Location

Airport or City:

Trip Planner

Search our weather history database for the weather conditions in past years. The results will help you decide how hot, cold, wet, or windy it might be!

Date:

Astronomy

Apr. 22, 2013 Rise Set
Actual Time 6:16 AM CDT 8:01 PM CDT
Civil Twilight 5:46 AM CDT 8:31 PM CDT
Nautical Twilight 5:10 AM CDT 9:08 PM CDT
Astronomical Twilight 4:30 AM CDT 9:48 PM CDT
Moon 4:46 PM CDT (4/22) 4:17 AM CDT (4/22)
Length of Visible Light 14h 45m
Length of Day
13h 44m
Waxing Gibbous, 88% of the Moon is Illuminated
Apr 22
Waxing Gibbous
Apr 25
Full
May 2
Last Quarter
May 9
New
May 17
First Quarter

Hourly Weather History & Observations

Time (CDT) Temp. Windchill Dew Point Humidity Pressure Visibility Wind Dir Wind Speed Gust Speed Precip Events Conditions
12:15 AM 50.0 °F - 48.2 °F 94% 30.16 in 10.0 mi South 11.5 mph - N/A   Overcast
12:35 AM 50.0 °F - 46.4 °F 87% 30.15 in 6.0 mi South 16.1 mph - N/A Rain Light Rain
12:55 AM 50.0 °F - 48.2 °F 94% 30.16 in 4.0 mi South 15.0 mph - 0.02 in   Overcast
1:15 AM 50.0 °F - 48.2 °F 94% 30.16 in 3.0 mi South 18.4 mph - N/A   Mostly Cloudy
1:35 AM 50.0 °F - 46.4 °F 87% 30.15 in 6.0 mi South 15.0 mph - N/A   Mostly Cloudy
1:55 AM 48.2 °F - 46.4 °F 93% 30.15 in 8.0 mi SSE 10.4 mph - 0.03 in   Overcast
2:15 AM 48.2 °F - 46.4 °F 93% 30.14 in 10.0 mi SSE 12.7 mph - N/A   Overcast
2:35 AM 48.2 °F - 46.4 °F 93% 30.14 in 10.0 mi SSE 12.7 mph - N/A   Overcast
2:55 AM 48.2 °F - 46.4 °F 93% 30.13 in 10.0 mi SSE 12.7 mph - N/A   Mostly Cloudy
3:15 AM 48.2 °F - 46.4 °F 93% 30.13 in 10.0 mi SSE 11.5 mph - N/A   Overcast
3:35 AM 48.2 °F - 46.4 °F 93% 30.12 in 10.0 mi South 11.5 mph - N/A   Overcast
3:55 AM 48.2 °F - 46.4 °F 93% 30.12 in 10.0 mi South 12.7 mph - N/A   Overcast
4:15 AM 48.2 °F - 46.4 °F 93% 30.12 in 10.0 mi South 11.5 mph - N/A   Overcast
4:35 AM 48.2 °F - 46.4 °F 93% 30.12 in 10.0 mi South 10.4 mph - N/A   Overcast
4:55 AM 48.2 °F - 44.6 °F 87% 30.12 in 10.0 mi South 10.4 mph - N/A   Overcast
5:15 AM 48.2 °F - 44.6 °F 87% 30.12 in 10.0 mi SSE 9.2 mph - N/A   Overcast
5:35 AM 48.2 °F - 44.6 °F 87% 30.12 in 10.0 mi South 9.2 mph - N/A   Overcast
5:55 AM 46.4 °F 42.9 °F 44.6 °F 93% 30.12 in 10.0 mi South 6.9 mph - N/A   Overcast
6:15 AM 48.2 °F - 44.6 °F 87% 30.12 in 10.0 mi South 6.9 mph - N/A   Overcast
6:35 AM 46.4 °F 45.2 °F 44.6 °F 93% 30.12 in 10.0 mi SSW 3.5 mph - N/A   Overcast
6:55 AM 46.4 °F 44.3 °F 44.6 °F 93% 30.12 in 8.0 mi SSW 4.6 mph - N/A   Overcast
7:15 AM 46.4 °F 44.3 °F 44.6 °F 93% 30.12 in 9.0 mi South 4.6 mph - N/A   Overcast
7:35 AM 46.4 °F 44.3 °F 44.6 °F 93% 30.13 in 9.0 mi South 4.6 mph - N/A   Overcast
7:55 AM 48.2 °F - 44.6 °F 87% 30.13 in 8.0 mi SSW 4.6 mph - N/A   Overcast
8:15 AM 48.2 °F - 44.6 °F 87% 30.12 in 9.0 mi Calm Calm - N/A   Overcast
8:35 AM 48.2 °F - 44.6 °F 87% 30.12 in 9.0 mi Calm Calm - N/A   Overcast
8:55 AM 48.2 °F - 44.6 °F 87% 30.13 in 9.0 mi Calm Calm - N/A   Overcast
9:15 AM 48.2 °F - 44.6 °F 87% 30.12 in 8.0 mi Calm Calm - N/A   Overcast
9:35 AM 48.2 °F - 44.6 °F 87% 30.12 in 9.0 mi SE 3.5 mph - N/A   Overcast
9:55 AM 48.2 °F - 44.6 °F 87% 30.12 in 10.0 mi SSE 4.6 mph - N/A   Overcast
10:15 AM 50.0 °F - 44.6 °F 82% 30.11 in 10.0 mi SSE 4.6 mph - N/A   Overcast
10:35 AM 50.0 °F - 46.4 °F 87% 30.11 in 10.0 mi SSE 6.9 mph - N/A   Overcast
10:55 AM 51.8 °F - 46.4 °F 82% 30.11 in 10.0 mi SSE 6.9 mph - N/A   Overcast
11:15 AM 51.8 °F - 46.4 °F 82% 30.10 in 10.0 mi South 8.1 mph - N/A   Overcast
11:35 AM 53.6 °F - 46.4 °F 77% 30.10 in 10.0 mi South 9.2 mph - N/A   Mostly Cloudy
11:55 AM 51.8 °F - 46.4 °F 82% 30.09 in 4.0 mi SSE 9.2 mph - 0.01 in Rain Light Rain
12:15 PM 51.8 °F - 46.4 °F 82% 30.10 in 4.0 mi South 9.2 mph - N/A Rain Light Rain
12:35 PM 50.0 °F - 46.4 °F 87% 30.09 in 3.0 mi SSW 4.6 mph - N/A   Mostly Cloudy
12:55 PM 51.8 °F - 48.2 °F 88% 30.08 in 9.0 mi SSE 9.2 mph - 0.02 in   Scattered Clouds
1:15 PM 51.8 °F - 48.2 °F 88% 30.06 in 8.0 mi SSE 6.9 mph - N/A Rain Light Rain
1:35 PM 51.8 °F - 46.4 °F 82% 30.05 in 8.0 mi SSE 8.1 mph - N/A   Mostly Cloudy
1:55 PM 51.8 °F - 46.4 °F 82% 30.05 in 10.0 mi SSE 10.4 mph - N/A   Mostly Cloudy
2:15 PM 51.8 °F - 46.4 °F 82% 30.04 in 10.0 mi SE 8.1 mph - N/A   Overcast
2:35 PM 51.8 °F - 46.4 °F 82% 30.03 in 10.0 mi SE 9.2 mph - N/A   Mostly Cloudy
2:55 PM 51.8 °F - 46.4 °F 82% 30.02 in 10.0 mi ESE 9.2 mph - N/A   Overcast
3:15 PM 53.6 °F - 46.4 °F 77% 30.01 in 10.0 mi SSE 8.1 mph - N/A   Overcast
3:35 PM 53.6 °F - 46.4 °F 77% 30.00 in 10.0 mi SSE 10.4 mph - N/A   Mostly Cloudy
3:55 PM 53.6 °F - 46.4 °F 77% 30.00 in 10.0 mi SSE 9.2 mph 15.0 mph N/A   Overcast
4:15 PM 55.4 °F - 46.4 °F 72% 29.99 in 10.0 mi SSE 8.1 mph - N/A   Mostly Cloudy
4:35 PM 55.4 °F - 46.4 °F 72% 29.98 in 10.0 mi SSE 5.8 mph - N/A   Scattered Clouds
4:55 PM 55.4 °F - 48.2 °F 77% 29.97 in 10.0 mi SE 5.8 mph - N/A   Overcast
5:15 PM 55.4 °F - 48.2 °F 77% 29.96 in 10.0 mi East 4.6 mph - N/A   Mostly Cloudy
5:35 PM 57.2 °F - 48.2 °F 72% 29.95 in 10.0 mi SE 6.9 mph - N/A   Scattered Clouds
5:55 PM 57.2 °F - 46.4 °F 67% 29.94 in 10.0 mi SE 6.9 mph - N/A   Mostly Cloudy
6:15 PM 57.2 °F - 48.2 °F 72% 29.93 in 10.0 mi SE 8.1 mph - N/A   Overcast
6:35 PM 57.2 °F - 46.4 °F 67% 29.92 in 10.0 mi SE 11.5 mph - N/A   Overcast
6:55 PM 57.2 °F - 46.4 °F 67% 29.91 in 10.0 mi SE 9.2 mph - N/A   Overcast
7:15 PM 57.2 °F - 46.4 °F 67% 29.91 in 10.0 mi SE 10.4 mph - N/A   Overcast
7:35 PM 55.4 °F - 48.2 °F 77% 29.92 in 8.0 mi WSW 11.5 mph - N/A Rain Light Rain
7:55 PM 50.0 °F - 48.2 °F 94% 29.94 in 4.0 mi NW 15.0 mph - N/A Rain Light Rain
8:15 PM 44.6 °F 36.4 °F 42.8 °F 93% 29.95 in 3.0 mi NNW 20.7 mph - N/A Rain Rain
8:35 PM 42.8 °F 35.8 °F 41.0 °F 93% 29.98 in 3.0 mi NNW 13.8 mph 21.9 mph N/A Rain Heavy Rain
8:55 PM 41.0 °F 32.8 °F 39.2 °F 93% 29.98 in 6.0 mi NNW 16.1 mph - 0.10 in Rain Light Rain
9:15 PM 41.0 °F 32.5 °F 39.2 °F 93% 29.98 in 5.0 mi North 17.3 mph - N/A Rain Light Rain
9:35 PM 39.2 °F 31.2 °F 37.4 °F 93% 30.00 in 6.0 mi North 13.8 mph - N/A Rain Light Rain
9:55 PM 39.2 °F 31.6 °F 37.4 °F 93% 30.01 in 5.0 mi North 12.7 mph - 0.05 in   Overcast
10:15 PM 39.2 °F 31.2 °F 35.6 °F 87% 30.02 in 5.0 mi NNW 13.8 mph - N/A Rain Light Rain
10:35 PM 37.4 °F 29.8 °F 35.6 °F 93% 30.02 in 5.0 mi NNW 11.5 mph 17.3 mph N/A Rain Light Rain
10:55 PM 37.4 °F 28.9 °F 35.6 °F 93% 30.02 in 6.0 mi NNW 13.8 mph - 0.04 in Rain Light Rain
11:15 PM 37.4 °F 30.3 °F 33.8 °F 87% 30.01 in 7.0 mi North 10.4 mph - N/A Rain Light Rain
11:35 PM 37.4 °F 28.5 °F 33.8 °F 87% 30.02 in 10.0 mi NNW 15.0 mph - N/A   Overcast
11:55 PM 37.4 °F 28.5 °F 33.8 °F 87% 30.02 in 10.0 mi NNW 15.0 mph - N/A   Overcast